• In Österreich
  • Länderverzeichnis
  • Für 7 Tage
  • Wassertemperatur
  • Satellitenkarten
  • Wetterkarte
  • News
  • Widgets
  • user-avatar
    Anmelden

    Stündliche Wetter Quito

    Heute, 18 Oktober, Donnerstag

    Zeit Temperatur Niederschläge Wind Luftdruck Luftfeuchtigkeit
    00:00 +21°C° 0 mm 2 m/S 621 mmHg 61%
    01:00 +20°C° 0 mm 3 m/S 621 mmHg 73%
    02:00 +19°C° 0.1 mm 3 m/S 621 mmHg 76%
    03:00 +19°C° 0.1 mm 3 m/S 621 mmHg 78%
    04:00 +19°C° 0.1 mm 3 m/S 621 mmHg 81%
    05:00 +19°C° 0 mm 3 m/S 621 mmHg 75%
    06:00 +20°C° 0 mm 3 m/S 622 mmHg 70%
    07:00 +21°C° 0 mm 3 m/S 623 mmHg 64%
    08:00 +24°C° 0 mm 2 m/S 623 mmHg 53%
    09:00 +26°C° 0 mm 2 m/S 624 mmHg 41%
    10:00 +28°C° 0 mm 2 m/S 624 mmHg 30%
    11:00 +31°C° 0 mm 2 m/S 624 mmHg 26%
    12:00 +34°C° 0 mm 2 m/S 624 mmHg 22%
    13:00 +35°C° 0 mm 1 m/S 624 mmHg 19%
    14:00 +34°C° 0 mm 1 m/S 623 mmHg 21%
    15:00 +32°C° 0 mm 2 m/S 622 mmHg 24%
    16:00 +30°C° 0 mm 2 m/S 621 mmHg 27%
    17:00 +28°C° 0 mm 2 m/S 621 mmHg 32%
    18:00 +27°C° 0 mm 2 m/S 621 mmHg 37%
    19:00 +25°C° 0 mm 2 m/S 621 mmHg 42%
    20:00 +24°C° 0 mm 2 m/S 621 mmHg 47%
    21:00 +23°C° 0 mm 2 m/S 621 mmHg 52%
    22:00 +21°C° 0 mm 2 m/S 622 mmHg 57%
    23:00 +21°C° 0.2 mm 2 m/S 622 mmHg 63%

    Morgen, 19 Oktober, Freitag

    Zeit Temperatur Niederschläge Wind Luftdruck Luftfeuchtigkeit
    00:00 +20°C° 0.2 mm 2 m/S 621 mmHg 68%
    01:00 +20°C° 0.2 mm 2 m/S 621 mmHg 74%
    02:00 +19°C° 0.2 mm 2 m/S 621 mmHg 76%
    03:00 +19°C° 0.2 mm 2 m/S 621 mmHg 79%
    04:00 +19°C° 0.2 mm 1 m/S 621 mmHg 82%
    05:00 +20°C° 0 mm 1 m/S 621 mmHg 77%
    06:00 +21°C° 0 mm 1 m/S 622 mmHg 72%
    07:00 +22°C° 0 mm 1 m/S 623 mmHg 67%
    08:00 +26°C° 0 mm 1 m/S 624 mmHg 55%
    09:00 +29°C° 0 mm 1 m/S 625 mmHg 44%
    10:00 +32°C° 0 mm 1 m/S 626 mmHg 32%
    11:00 +32°C° 0 mm 2 m/S 625 mmHg 31%
    12:00 +31°C° 0 mm 2 m/S 624 mmHg 30%
    13:00 +31°C° 0 mm 3 m/S 623 mmHg 29%
    14:00 +30°C° 0 mm 3 m/S 623 mmHg 30%
    15:00 +30°C° 0 mm 3 m/S 622 mmHg 31%
    16:00 +30°C° 0 mm 3 m/S 622 mmHg 32%
    17:00 +28°C° 0 mm 2 m/S 622 mmHg 38%
    18:00 +26°C° 0 mm 2 m/S 622 mmHg 44%
    19:00 +24°C° 0 mm 2 m/S 622 mmHg 49%
    20:00 +23°C° 2.2 mm 2 m/S 622 mmHg 59%
    21:00 +21°C° 2.2 mm 2 m/S 622 mmHg 69%
    22:00 +20°C° 2.2 mm 2 m/S 622 mmHg 80%
    23:00 +20°C° 0.3 mm 2 m/S 622 mmHg 80%

    übermorgen, 20 Oktober, Samstag

    Zeit Temperatur Niederschläge Wind Luftdruck Luftfeuchtigkeit
    00:00 +19°C° 0.3 mm 2 m/S 622 mmHg 80%
    01:00 +19°C° 0.3 mm 2 m/S 622 mmHg 80%
    02:00 +19°C° 1 mm 2 m/S 622 mmHg 82%
    03:00 +19°C° 1 mm 2 m/S 622 mmHg 83%
    04:00 +18°C° 1 mm 2 m/S 622 mmHg 85%
    05:00 +18°C° 1.8 mm 2 m/S 622 mmHg 84%
    06:00 +18°C° 1.8 mm 2 m/S 623 mmHg 84%
    07:00 +18°C° 1.8 mm 2 m/S 623 mmHg 84%
    08:00 +21°C° 0.2 mm 2 m/S 624 mmHg 74%
    09:00 +24°C° 0.2 mm 1 m/S 625 mmHg 64%
    10:00 +26°C° 0.2 mm 1 m/S 626 mmHg 55%
    11:00 +27°C° 0.2 mm 2 m/S 625 mmHg 49%
    12:00 +28°C° 0.2 mm 2 m/S 625 mmHg 43%
    13:00 +29°C° 0.2 mm 2 m/S 624 mmHg 37%
    14:00 +29°C° 0 mm 3 m/S 624 mmHg 37%
    15:00 +29°C° 0 mm 3 m/S 623 mmHg 37%
    16:00 +29°C° 0 mm 3 m/S 623 mmHg 38%
    17:00 +27°C° 2 mm 3 m/S 623 mmHg 49%
    18:00 +24°C° 2 mm 3 m/S 622 mmHg 60%
    19:00 +21°C° 2 mm 4 m/S 622 mmHg 71%
    20:00 +21°C° 0.9 mm 3 m/S 622 mmHg 71%
    21:00 +20°C° 0.9 mm 2 m/S 623 mmHg 71%
    22:00 +21°C° 0.9 mm 1 m/S 623 mmHg 72%
    23:00 +21°C° 0.1 mm 1 m/S 623 mmHg 70%

    21 Oktober, Sonntag

    Zeit Temperatur Niederschläge Wind Luftdruck Luftfeuchtigkeit
    00:00 +21°C° 0.1 mm 1 m/S 623 mmHg 68%
    01:00 +21°C° 0.1 mm 1 m/S 622 mmHg 66%
    02:00 +20°C° 0.4 mm 1 m/S 622 mmHg 73%
    03:00 +19°C° 0.4 mm 1 m/S 621 mmHg 79%
    04:00 +18°C° 0.4 mm 1 m/S 621 mmHg 86%
    05:00 +19°C° 0 mm 1 m/S 622 mmHg 82%
    06:00 +20°C° 0 mm 1 m/S 623 mmHg 77%
    07:00 +20°C° 0 mm 0 m/S 623 mmHg 72%
    08:00 +24°C° 0 mm 1 m/S 624 mmHg 63%
    09:00 +26°C° 0 mm 1 m/S 624 mmHg 54%
    10:00 +28°C° 0 mm 2 m/S 625 mmHg 45%
    11:00 +29°C° 0 mm 2 m/S 625 mmHg 41%
    12:00 +31°C° 0 mm 2 m/S 625 mmHg 37%
    13:00 +32°C° 0 mm 1 m/S 624 mmHg 33%
    14:00 +31°C° 0.1 mm 2 m/S 624 mmHg 36%
    15:00 +30°C° 0.1 mm 2 m/S 623 mmHg 38%
    16:00 +29°C° 0.1 mm 3 m/S 622 mmHg 40%
    17:00 +27°C° 0.7 mm 3 m/S 622 mmHg 51%
    18:00 +24°C° 0.7 mm 2 m/S 622 mmHg 62%
    19:00 +21°C° 0.7 mm 2 m/S 622 mmHg 73%
    20:00 +20°C° 2.3 mm 3 m/S 622 mmHg 75%
    21:00 +20°C° 2.3 mm 3 m/S 623 mmHg 78%
    22:00 +19°C° 2.3 mm 3 m/S 623 mmHg 81%
    23:00 +19°C° 0.3 mm 2 m/S 622 mmHg 80%

    22 Oktober, Montag

    Zeit Temperatur Niederschläge Wind Luftdruck Luftfeuchtigkeit
    00:00 +20°C° 0.3 mm 1 m/S 622 mmHg 80%
    01:00 +20°C° 0.3 mm 1 m/S 621 mmHg 79%
    02:00 +19°C° 0.5 mm 1 m/S 621 mmHg 81%
    03:00 +19°C° 0.5 mm 1 m/S 621 mmHg 82%
    04:00 +19°C° 0.5 mm 1 m/S 621 mmHg 84%
    05:00 +20°C° 0.3 mm 1 m/S 622 mmHg 81%
    06:00 +20°C° 0.3 mm 1 m/S 623 mmHg 78%
    07:00 +19°C° 0.3 mm 0 m/S 624 mmHg 75%
    08:00 +22°C° 0.5 mm 0 m/S 624 mmHg 66%
    09:00 +26°C° 0.5 mm 1 m/S 625 mmHg 57%
    10:00 +29°C° 0.5 mm 1 m/S 626 mmHg 48%
    11:00 +28°C° 0.5 mm 2 m/S 625 mmHg 49%
    12:00 +27°C° 0.5 mm 2 m/S 624 mmHg 50%
    13:00 +27°C° 0.5 mm 3 m/S 623 mmHg 51%
    14:00 +25°C° 0.7 mm 4 m/S 623 mmHg 56%
    15:00 +23°C° 0.7 mm 4 m/S 623 mmHg 61%
    16:00 +22°C° 0.7 mm 4 m/S 622 mmHg 67%
    17:00 +21°C° 0 mm 4 m/S 622 mmHg 71%
    18:00 +19°C° 0 mm 3 m/S 622 mmHg 76%
    19:00 +18°C° 0 mm 2 m/S 622 mmHg 80%
    20:00 +18°C° 0.1 mm 2 m/S 623 mmHg 81%
    21:00 +19°C° 0.1 mm 1 m/S 623 mmHg 81%
    22:00 +19°C° 0.1 mm 1 m/S 623 mmHg 81%
    23:00 +19°C° 0 mm 1 m/S 623 mmHg 81%

    23 Oktober, Dienstag

    Zeit Temperatur Niederschläge Wind Luftdruck Luftfeuchtigkeit
    00:00 +19°C° 0 mm 1 m/S 623 mmHg 80%
    01:00 +18°C° 0 mm 1 m/S 622 mmHg 80%
    02:00 +18°C° 0 mm 1 m/S 622 mmHg 81%
    03:00 +18°C° 0 mm 1 m/S 622 mmHg 82%
    04:00 +16°C° 0 mm 0 m/S 622 mmHg 83%
    05:00 +16°C° 0 mm 0 m/S 623 mmHg 80%
    06:00 +17°C° 0 mm 0 m/S 623 mmHg 76%
    07:00 +18°C° 0 mm 0 m/S 624 mmHg 73%
    08:00 +22°C° 0 mm 1 m/S 625 mmHg 64%
    09:00 +25°C° 0 mm 2 m/S 625 mmHg 55%
    10:00 +27°C° 0 mm 2 m/S 626 mmHg 46%
    11:00 +28°C° 0 mm 2 m/S 625 mmHg 42%
    12:00 +29°C° 0 mm 2 m/S 625 mmHg 38%
    13:00 +30°C° 0 mm 2 m/S 624 mmHg 34%
    14:00 +30°C° 0 mm 2 m/S 624 mmHg 35%
    15:00 +29°C° 0 mm 2 m/S 623 mmHg 36%
    16:00 +29°C° 0 mm 2 m/S 623 mmHg 38%
    17:00 +27°C° 0.1 mm 2 m/S 623 mmHg 45%
    18:00 +24°C° 0.1 mm 2 m/S 623 mmHg 52%
    19:00 +22°C° 0.1 mm 1 m/S 622 mmHg 59%
    20:00 +21°C° 0.6 mm 1 m/S 622 mmHg 64%
    21:00 +21°C° 0.6 mm 1 m/S 622 mmHg 69%
    22:00 +20°C° 0.6 mm 1 m/S 622 mmHg 75%
    23:00 +20°C° 0.2 mm 1 m/S 622 mmHg 76%
    Mehr zeigen